sat.trackr.live / text

‹ back to catalog

STARLINK-4007

NORAD 52707 · 2022-053BD

PAYLOAD ACTIVE UNKNOWN

§ Identity

Operator
Country
US
Launch date
2022-05-18
Launch site
AFETR
Launch vehicle
Mass (kg)
RCS (m²)

Purposes: comms

External: N2YO · Heavens-Above · Gunter

§ Orbital elements

Epoch: 2026-05-25T03:42:43.965792Z

Period
95.37 min
Inclination
53.2145°
Eccentricity
0.0002308
Mean motion
15.09830004 rev/d
Perigee alt
535.1 km
Apogee alt
538.3 km
Semi-major
6,914.9 km
B*
9.8559e-4
RAAN
150.6084°
Arg perigee
47.7995°
Mean anomaly
312.3193°
Rev number
22,292

§ Raw data

STARLINK-40071 52707U 22053BD  26145.15467553  .00015864  00000+0  98559-3 0  99992 52707  53.2145 150.6084 0002308  47.7995 312.3193 15.09830004222920

JSON: /api/v1/satellites/52707 · /tle

For live sub-satellite position, see the globe view (requires WebGL).

§ Visibility from observer

Set your observer location to see the next 7 days of passes ≥ 10°. The values pass through the URL so the page stays shareable.

No JS? Fill the form by hand. The geolocation button needs JavaScript.